Location: Tel Aviv
(32.0670°N, 34.7670°E)
Time: 11:47:50
(UTC+03:00)

Explorer 11/Cluster Stage 4 - Pass Details

Date: 19 September 2024
Orbit: 464 x 1208 km, 28.8° (Epoch: 06 October)

Event Time Altitude Azimuth Distance (km) Brightness Sun altitude
Rises 05:24:21 0° 241° (WSW) 3,044 - -14.1°
Reaches altitude 10° 05:26:37 10° 235° (SW) 2,237 - -13.6°
Exits shadow 05:27:31 15° 231° (SW) 1,940 8.1 -13.4°
Maximum altitude 05:31:44 46° 163° (SSE) 1,133 7.4 -12.6°
Drops below altitude 10° 05:38:02 10° 92° (E) 2,753 10.8 -11.2°
Sets 05:41:05 0° 87° (E) 3,819 12.3 -10.6°
